Powrót do katalogu

STARLINK-2746

AktywnyŁącznośćVLEO
NORAD 48676·PAYLOAD·🇺🇸 United States

Wystrzelony May 26, 2021 z Cape Canaveral Space Force Station

Loading…

Następne Przeloty (najbliższe 24 godziny)

TLE

ŚwieżeSource: CelesTrak SupGP

Epoka: Sep 14, 2026, 21:29 UTC

1 48676C 21044AQ  26257.89562500 -.00011866  00000+0 -38148-3 0  2576
2 48676  53.1584 314.8911 0001017  93.1272 207.2217 15.31716140    10

Śledź STARLINK-2746 w czasie rzeczywistym z AllMySat

Download on the App Store